Ste-Foy-Tarentaise, France 16 day weather forecast

Slopes altitude range 1550 m - 2620m

Number of lifts: 7 Pistes: 32km

In some cases the lift and piste totals shown are for the ski domain (e.g. Three Valleys) rather than individual resort (e.g. Courchevel)

Overview

The 16 day weather forecast is fully updated 4 times every day.

    • Wed 23 MAY 2018
    • Wed 23
    • 0C 2C
    • Thu 24 MAY 2018
    • Thu 24
    • 1C 4C
    • Fri 25 MAY 2018
    • Fri 25
    • 3C 6C
    • Sat 26 MAY 2018
    • Sat 26
    • 4C 9C
    • Sun 27 MAY 2018
    • Sun 27
    • 5C 9C
    • Mon 28 MAY 2018
    • Mon 28
    • 5C 8C
    • Tue 29 MAY 2018
    • Tue 29
    • 4C 7C
    • Wed 30 MAY 2018
    • Wed 30
    • 11C 17C
    • Thu 31 MAY 2018
    • Thu 31
    • 11C 17C
    • Fri 01 JUN 2018
    • Fri 01
    • 10C 16C
    • Sat 02 JUN 2018
    • Sat 02
    • 12C 18C
    • Sun 03 JUN 2018
    • Sun 03
    • 11C 17C
    • Mon 04 JUN 2018
    • Mon 04
    • 6C 11C
    • Tue 05 JUN 2018
    • Tue 05
    • 6C 15C
    • Wed 06 JUN 2018
    • Wed 06
    • 5C 9C
    • Thu 07 JUN 2018
    • Thu 07
    • 5C 13C

Date:

Time Type 0°C level Temp Chill Snow Cloud Speed Gust Dir Press
3:00 2698m 0°C 0_1 2cm 100% 1mph 2mph 1017mB
6:00 2795m 0°C 0_1 2cm 100% 1mph 1mph 1017mB
9:00 2928m 0°C 0_1 2cm 100% 1mph 1mph 1017mB
12:00 3089m 2°C 2_2 0cm 100% 2mph 2mph 1017mB
15:00 3168m 2°C 2_1 0cm 100% 1mph 2mph 1016mB
18:00 3079m 2°C 2_3 0cm 100% 3mph 5mph 1017mB
21:00 3039m 1°C 1_2 0cm 100% 2mph 3mph 1019mB
0:00 2438m -1°C -1_0 3cm 91% 0mph 1mph 1019mB
3:00 2048m -4°C -4_0 0cm 71% 0mph 1mph 1019mB
6:00 3147m -4°C -4_1 0cm 75% 1mph 1mph 1019mB
9:00 3160m 1°C 1_1 0cm 22% 1mph 2mph 1019mB
12:00 3360m 4°C 4_2 0cm 35% 2mph 2mph 1018mB
15:00 3518m 5°C 5_4 0cm 100% 4mph 5mph 1017mB
18:00 3545m 5°C 5_5 0cm 100% 5mph 6mph 1017mB
21:00 3621m 0°C 0_2 0cm 100% 2mph 3mph 1019mB
0:00 2762m -1°C -1_0 0cm 85% 0mph 1mph 1020mB
3:00 2757m -1°C -1_1 0cm 34% 1mph 2mph 1019mB
6:00 3726m -1°C -1_1 0cm 44% 1mph 2mph 1019mB
9:00 3739m 3°C 3_3 0cm 23% 3mph 3mph 1018mB
12:00 3755m 6°C 6_3 0cm 26% 3mph 3mph 1017mB
15:00 3845m 6°C 6_4 0cm 7% 4mph 5mph 1017mB
18:00 3885m 6°C 6_4 0cm 11% 4mph 5mph 1017mB
21:00 3983m 3°C 3_1 0cm 61% 1mph 2mph 1019mB
0:00 3986m 2°C 2_3 0cm 80% 3mph 3mph 1019mB
3:00 3955m 2°C 2_3 0cm 100% 3mph 4mph 1020mB
6:00 3967m 2°C 2_4 0cm 100% 4mph 4mph 1019mB
9:00 3988m 4°C 4_4 0cm 100% 4mph 4mph 1019mB
12:00 3970m 9°C 9_4 0cm 100% 4mph 4mph 1019mB
15:00 3858m 9°C 9_3 0cm 100% 3mph 3mph 1019mB
18:00 3843m 9°C 9_0 0cm 100% 0mph 1mph 1020mB
21:00 3934m 3°C 3_4 0cm 100% 4mph 5mph 1021mB
0:00 3972m 2°C 2_4 0cm 93% 4mph 5mph 1021mB
3:00 4020m 2°C 2_4 0cm 62% 4mph 5mph 1020mB
6:00 4019m 2°C 2_5 0cm 46% 5mph 6mph 1020mB
9:00 3959m 5°C 5_3 0cm 100% 3mph 3mph 1020mB
12:00 3932m 9°C 9_1 0cm 100% 1mph 2mph 1018mB
15:00 3905m 9°C 9_2 0cm 100% 2mph 2mph 1017mB
18:00 3776m 9°C 9_4 0cm 100% 4mph 5mph 1018mB
21:00 3843m 4°C 4_4 0cm 100% 4mph 4mph 1020mB
0:00 3934m 3°C 3_5 0cm 100% 5mph 5mph 1019mB
3:00 3882m 3°C 3_5 0cm 100% 5mph 6mph 1019mB
6:00 3939m 3°C 3_6 0cm 100% 6mph 6mph 1018mB
9:00 3915m 5°C 5_7 0cm 100% 7mph 8mph 1017mB
12:00 3794m 8°C 8_8 0cm 96% 8mph 9mph 1016mB
15:00 3762m 8°C 8_8 0cm 100% 8mph 9mph 1015mB
18:00 3846m 8°C 8_7 0cm 100% 7mph 8mph 1015mB
21:00 3828m 4°C 4_6 0cm 95% 6mph 7mph 1017mB
0:00 3791m 3°C 3_6 0cm 87% 6mph 7mph 1017mB
3:00 3825m 3°C 3_6 0cm 100% 6mph 7mph 1017mB
6:00 3691m 3°C 3_6 0cm 100% 6mph 6mph 1017mB
9:00 3616m 4°C 4_5 0cm 90% 5mph 6mph 1016mB
12:00 3743m 7°C 7_5 0cm 95% 5mph 6mph 1015mB
15:00 3851m 8°C 8_3 0cm 100% 3mph 3mph 1014mB
18:00 3937m 8°C 8_3 0cm 97% 3mph 3mph 1014mB
21:00 3983m 5°C 5_4 0cm 95% 4mph 4mph 1016mB
0:00 3979m 4°C 4_4 0cm 87% 4mph 5mph 1016mB
3:00 3997m 3°C 3_4 0cm 97% 4mph 5mph 1015mB
6:00 3992m 2°C 2_5 0cm 98% 5mph 5mph 1015mB
9:00 3893m 11°C 11_1 0cm 39% 1mph 3mph 1014mB
12:00 3922m 17°C 17_2 0cm 43% 2mph 2mph 1013mB
15:00 3948m 16°C 16_2 0cm 95% 2mph 2mph 1012mB
18:00 3901m 16°C 16_2 0cm 84% 2mph 2mph 1013mB
21:00 3896m 9°C 9_5 0cm 55% 5mph 6mph 1015mB
0:00 3897m 8°C 8_6 0cm 75% 6mph 7mph 1015mB
3:00 3930m 7°C 7_4 0cm 18% 4mph 5mph 1015mB
6:00 3820m 6°C 6_2 0cm 38% 2mph 2mph 1016mB
9:00 3719m 11°C 11_2 0cm 49% 2mph 2mph 1015mB
12:00 3833m 17°C 17_4 0cm 41% 4mph 4mph 1015mB
15:00 3874m 15°C 15_5 0cm 29% 5mph 5mph 1014mB
18:00 3918m 15°C 15_5 0cm 31% 5mph 6mph 1015mB
21:00 3907m 8°C 8_3 0cm 1% 3mph 4mph 1017mB
0:00 3780m 7°C 7_3 0cm 1% 3mph 3mph 1017mB
3:00 3748m 6°C 6_2 0cm 0% 2mph 3mph 1018mB
6:00 3728m 6°C 6_2 0cm 0% 2mph 2mph 1018mB
9:00 3732m 10°C 10_5 0cm 0% 5mph 4mph 1018mB
12:00 3841m 16°C 16_5 0cm 5% 5mph 4mph 1017mB
15:00 3971m 15°C 15_6 0cm 78% 6mph 7mph 1016mB
18:00 4003m 15°C 15_5 0cm 88% 5mph 6mph 1017mB
Morning 0.114583mm 1.375 3971m 8°C 8_3 0cm 78% 3mph 3mph 1019mB
Afternoon 1.19792mm 14.25 4046m 18°C 18_3 0cm 70% 3mph 5mph 1015mB
Morning 0.640625mm 7.25 3965m 9°C 9_4 0cm 94% 4mph 7mph 1014mB
Afternoon 1.09896mm 7 3695m 17°C 17_6 0cm 99% 6mph 10mph 1013mB
Morning 0.46875mm 0.5 2880m 6°C 6_8 0cm 98% 8mph 11mph 1014mB
Afternoon 0.125mm 0.9375 2783m 11°C 11_8 0cm 66% 8mph 10mph 1014mB
Morning 0.0104167mm 0.0625 3119m 1°C 1_2 0cm 35% 2mph 4mph 1015mB
Afternoon 0.0104167mm 0.125 3368m 15°C 15_7 0cm 39% 7mph 9mph 1011mB
Morning 0.177083mm 0.0625 2809m 4°C 4_6 0cm 94% 6mph 10mph 1013mB
Afternoon 0.119792mm 0.4375 2800m 9°C 9_8 0cm 83% 8mph 9mph 1013mB
Morning 0.0104167mm 0 3310m 1°C 1_4 0cm 45% 4mph 7mph 1016mB
Afternoon 0mm 0 3410m 13°C 13_9 0cm 93% 9mph 11mph 1014mB

16 day outlook at a glance

Forecast issued: 23/05/2018 04:26:21

Chat

Your comments and questions. In a resort? Let us know what it's like!


Characters left 250

For terms and conditions see Readers Comments on the Cookie and privacy policy page.